Location: Betpouey
(42.8833°N, 0.0333°E)
Time: 04:46:02
(UTC+00:00)

Meteor 2-13 Rocket - Pass Details

Date: 03 July 2021
Orbit: 935 x 958 km, 82.5° (Epoch: 26 July)

Event Time Altitude Azimuth Distance (km) Brightness Sun altitude
Exits shadow 21:20:17 10° 100° (E) 2,707 6.4 -14.2°
Reaches altitude 10° 21:20:25 10° 98° (E) 2,688 6.4 -14.2°
Maximum altitude 21:22:31 12° 78° (ENE) 2,555 6.4 -14.4°
Drops below altitude 10° 21:24:36 10° 58° (ENE) 2,691 6.8 -14.7°
Sets 21:28:57 0° 29° (NNE) 3,640 7.8 -15.1°
